Location: Newark
(42.1667°N, 14.5667°E)
Time: 23:23:21
(UTC+00:00)

Envisat - Pass Details

Date: 26 January 2020
Orbit: 764 x 766 km, 98.1° (Epoch: 19 February)

Event Time Altitude Azimuth Distance (km) Brightness Sun altitude
Rises 05:34:29 0° 15° (NNE) 3,241 6.2 -8.9°
Reaches altitude 10° 05:36:49 10° 18° (NNE) 2,310 5.5 -8.5°
Maximum altitude 05:41:53 69° 102° (ESE) 817 3.4 -7.6°
Drops below altitude 10° 05:46:56 10° 186° (S) 2,293 5.7 -6.7°
Sets 05:49:14 0° 188° (S) 3,214 6.4 -6.3°
